Year,Month,Day,Hour,Minute,Value (Times are PST for temperature in C)
2016,02,08,00,00,6.20
2016,02,08,00,01,6.20
2016,02,08,00,02,6.20
2016,02,08,00,03,6.20
2016,02,08,00,04,6.20
2016,02,08,00,05,6.20
2016,02,08,00,06,6.20
2016,02,08,00,07,6.10
2016,02,08,00,08,6.10
2016,02,08,00,09,6.10
2016,02,08,00,10,6.10
2016,02,08,00,11,6.10
2016,02,08,00,12,6.10
2016,02,08,00,13,6.10
2016,02,08,00,14,6.10
2016,02,08,00,15,6.10
2016,02,08,00,16,6.10
2016,02,08,00,17,6.10
2016,02,08,00,18,6.10
2016,02,08,00,19,6.10
2016,02,08,00,20,6.10
2016,02,08,00,21,6.10
2016,02,08,00,22,6.10
2016,02,08,00,23,6.10
2016,02,08,00,24,6.10
2016,02,08,00,25,6.10
2016,02,08,00,26,6.10
2016,02,08,00,27,6.10
2016,02,08,00,28,6.10
2016,02,08,00,29,6.10
2016,02,08,00,30,6.10
2016,02,08,00,31,6.10
2016,02,08,00,32,6.10
2016,02,08,00,33,6.10
2016,02,08,00,34,6.10
2016,02,08,00,35,6.10
2016,02,08,00,36,6.10
2016,02,08,00,37,6.10
2016,02,08,00,38,6.10
2016,02,08,00,39,6.20
2016,02,08,00,40,6.20
2016,02,08,00,41,6.20
2016,02,08,00,42,6.20
2016,02,08,00,43,6.20
2016,02,08,00,44,6.20
2016,02,08,00,45,6.20
2016,02,08,00,46,6.20
2016,02,08,00,47,6.20
2016,02,08,00,48,6.20
2016,02,08,00,49,6.30
2016,02,08,00,50,6.30
2016,02,08,00,51,6.30
2016,02,08,00,52,6.30
2016,02,08,00,53,6.30
2016,02,08,00,54,6.30
2016,02,08,00,55,6.30
2016,02,08,00,56,6.30
2016,02,08,00,57,6.30
2016,02,08,00,58,6.30
2016,02,08,00,59,6.30
2016,02,08,01,00,6.30
2016,02,08,01,01,6.30
2016,02,08,01,02,6.30
2016,02,08,01,03,6.30
2016,02,08,01,04,6.30
2016,02,08,01,05,6.40
2016,02,08,01,06,6.40
2016,02,08,01,07,6.40
2016,02,08,01,08,6.40
2016,02,08,01,09,6.40
2016,02,08,01,10,6.50
2016,02,08,01,11,6.40
2016,02,08,01,12,6.50
2016,02,08,01,13,6.50
2016,02,08,01,14,6.50
2016,02,08,01,15,6.50
2016,02,08,01,16,6.50
2016,02,08,01,17,6.50
2016,02,08,01,18,6.50
2016,02,08,01,19,6.50
2016,02,08,01,20,6.50
2016,02,08,01,21,6.50
2016,02,08,01,22,6.50
2016,02,08,01,23,6.50
2016,02,08,01,24,6.50
2016,02,08,01,25,6.50
2016,02,08,01,26,6.50
2016,02,08,01,27,6.50
2016,02,08,01,28,6.50
2016,02,08,01,29,6.60
2016,02,08,01,30,6.60
2016,02,08,01,31,6.60
2016,02,08,01,32,6.60
2016,02,08,01,33,6.60
2016,02,08,01,34,6.60
2016,02,08,01,35,6.60
2016,02,08,01,36,6.70
2016,02,08,01,37,6.70
2016,02,08,01,38,6.70
2016,02,08,01,39,6.70
2016,02,08,01,40,6.70
2016,02,08,01,41,6.70
2016,02,08,01,42,6.70
2016,02,08,01,43,6.70
2016,02,08,01,44,6.70
2016,02,08,01,45,6.70
2016,02,08,01,46,6.70
2016,02,08,01,47,6.70
2016,02,08,01,48,6.70
2016,02,08,01,49,6.70
2016,02,08,01,50,6.70
2016,02,08,01,51,6.70
2016,02,08,01,52,6.70
2016,02,08,01,53,6.70
2016,02,08,01,54,6.70
2016,02,08,01,55,6.70
2016,02,08,01,56,6.70
2016,02,08,01,57,6.70
2016,02,08,01,58,6.70
2016,02,08,01,59,6.60
2016,02,08,02,00,6.60
2016,02,08,02,01,6.60
2016,02,08,02,02,6.60
2016,02,08,02,03,6.60
2016,02,08,02,04,6.60
2016,02,08,02,05,6.60
2016,02,08,02,06,6.60
2016,02,08,02,07,6.60
2016,02,08,02,08,6.60
2016,02,08,02,09,6.60
2016,02,08,02,10,6.60
2016,02,08,02,11,6.60
2016,02,08,02,12,6.50
2016,02,08,02,13,6.50
2016,02,08,02,14,6.50
2016,02,08,02,15,6.50
2016,02,08,02,16,6.50
2016,02,08,02,17,6.50
2016,02,08,02,18,6.50
2016,02,08,02,19,6.50
2016,02,08,02,20,6.40
2016,02,08,02,21,6.50
2016,02,08,02,22,6.40
2016,02,08,02,23,6.40
2016,02,08,02,24,6.40
2016,02,08,02,25,6.40
2016,02,08,02,26,6.40
2016,02,08,02,27,6.40
2016,02,08,02,28,6.50
2016,02,08,02,29,6.50
2016,02,08,02,30,6.50
2016,02,08,02,31,6.50
2016,02,08,02,32,6.50
2016,02,08,02,33,6.50
2016,02,08,02,34,6.50
2016,02,08,02,35,6.50
2016,02,08,02,36,6.50
2016,02,08,02,37,6.40
2016,02,08,02,38,6.50
2016,02,08,02,39,6.50
2016,02,08,02,40,6.50
2016,02,08,02,41,6.50
2016,02,08,02,42,6.40
2016,02,08,02,43,6.50
2016,02,08,02,44,6.50
2016,02,08,02,45,6.50
2016,02,08,02,46,6.40
2016,02,08,02,47,6.40
2016,02,08,02,48,6.40
2016,02,08,02,49,6.40
2016,02,08,02,50,6.40
2016,02,08,02,51,6.40
2016,02,08,02,52,6.50
2016,02,08,02,53,6.50
2016,02,08,02,54,6.50
2016,02,08,02,55,6.50
2016,02,08,02,56,6.50
2016,02,08,02,57,6.50
2016,02,08,02,58,6.50
2016,02,08,02,59,6.50
2016,02,08,03,00,6.50
2016,02,08,03,01,6.50
2016,02,08,03,02,6.50
2016,02,08,03,03,6.50
2016,02,08,03,04,6.50
2016,02,08,03,05,6.50
2016,02,08,03,06,6.50
2016,02,08,03,07,6.50
2016,02,08,03,08,6.50
2016,02,08,03,09,6.50
2016,02,08,03,10,6.50
2016,02,08,03,11,6.50
2016,02,08,03,12,6.50
2016,02,08,03,13,6.50
2016,02,08,03,14,6.50
2016,02,08,03,15,6.50
2016,02,08,03,16,6.50
2016,02,08,03,17,6.50
2016,02,08,03,18,6.50
2016,02,08,03,19,6.50
2016,02,08,03,20,6.50
2016,02,08,03,21,6.50
2016,02,08,03,22,6.50
2016,02,08,03,23,6.50
2016,02,08,03,24,6.40
2016,02,08,03,25,6.40
2016,02,08,03,26,6.40
2016,02,08,03,27,6.40
2016,02,08,03,28,6.40
2016,02,08,03,29,6.40
2016,02,08,03,30,6.40
2016,02,08,03,31,6.40
2016,02,08,03,32,6.40
2016,02,08,03,33,6.40
2016,02,08,03,34,6.40
2016,02,08,03,35,6.40
2016,02,08,03,36,6.40
2016,02,08,03,37,6.40
2016,02,08,03,38,6.40
2016,02,08,03,39,6.40
2016,02,08,03,40,6.40
2016,02,08,03,41,6.40
2016,02,08,03,42,6.40
2016,02,08,03,43,6.40
2016,02,08,03,44,6.40
2016,02,08,03,45,6.40
2016,02,08,03,46,6.40
2016,02,08,03,47,6.40
2016,02,08,03,48,6.30
2016,02,08,03,49,6.30
2016,02,08,03,50,6.30
2016,02,08,03,51,6.30
2016,02,08,03,52,6.30
2016,02,08,03,53,6.30
2016,02,08,03,54,6.30
2016,02,08,03,55,6.30
2016,02,08,03,56,6.30
2016,02,08,03,57,6.30
2016,02,08,03,58,6.30
2016,02,08,03,59,6.30
2016,02,08,04,00,6.30
2016,02,08,04,01,6.30
2016,02,08,04,02,6.30
2016,02,08,04,03,6.30
2016,02,08,04,04,6.30
2016,02,08,04,05,6.30
2016,02,08,04,06,6.30
2016,02,08,04,07,6.20
2016,02,08,04,08,6.20
2016,02,08,04,09,6.20
2016,02,08,04,10,6.20
2016,02,08,04,11,6.20
2016,02,08,04,12,6.20
2016,02,08,04,13,6.20
2016,02,08,04,14,6.20
2016,02,08,04,15,6.10
2016,02,08,04,16,6.10
2016,02,08,04,17,6.10
2016,02,08,04,18,6.10
2016,02,08,04,19,6.10
2016,02,08,04,20,6.10
2016,02,08,04,21,6.10
2016,02,08,04,22,6.10
2016,02,08,04,23,6.10
2016,02,08,04,24,6.00
2016,02,08,04,25,6.00
2016,02,08,04,26,6.00
2016,02,08,04,27,6.00
2016,02,08,04,28,6.00
2016,02,08,04,29,6.00
2016,02,08,04,30,6.00
2016,02,08,04,31,6.00
2016,02,08,04,32,5.90
2016,02,08,04,33,5.90
2016,02,08,04,34,5.90
2016,02,08,04,35,5.90
2016,02,08,04,36,5.90
2016,02,08,04,37,5.90
2016,02,08,04,38,5.90
2016,02,08,04,39,5.90
2016,02,08,04,40,5.90
2016,02,08,04,41,5.90
2016,02,08,04,42,5.90
2016,02,08,04,43,5.90
2016,02,08,04,44,5.80
2016,02,08,04,45,5.80
2016,02,08,04,46,5.80
2016,02,08,04,47,5.80
2016,02,08,04,48,5.80
2016,02,08,04,49,5.80
2016,02,08,04,50,5.80
2016,02,08,04,51,5.80
2016,02,08,04,52,5.80
2016,02,08,04,53,5.80
2016,02,08,04,54,5.80
2016,02,08,04,55,5.70
2016,02,08,04,56,5.70
2016,02,08,04,57,5.70
2016,02,08,04,58,5.70
2016,02,08,04,59,5.70
2016,02,08,05,00,5.70
2016,02,08,05,01,5.70
2016,02,08,05,02,5.70
2016,02,08,05,03,5.70
2016,02,08,05,04,5.70
2016,02,08,05,05,5.60
2016,02,08,05,06,5.60
2016,02,08,05,07,5.60
2016,02,08,05,08,5.60
2016,02,08,05,09,5.60
2016,02,08,05,10,5.60
2016,02,08,05,11,5.60
2016,02,08,05,12,5.60
2016,02,08,05,13,5.60
2016,02,08,05,14,5.60
2016,02,08,05,15,5.60
2016,02,08,05,16,5.50
2016,02,08,05,17,5.50
2016,02,08,05,18,5.50
2016,02,08,05,19,5.50
2016,02,08,05,20,5.50
2016,02,08,05,21,5.50
2016,02,08,05,22,5.50
2016,02,08,05,23,5.50
2016,02,08,05,24,5.40
2016,02,08,05,25,5.40
2016,02,08,05,26,5.40
2016,02,08,05,27,5.40
2016,02,08,05,28,5.40
2016,02,08,05,29,5.40
2016,02,08,05,30,5.40
2016,02,08,05,31,5.40
2016,02,08,05,32,5.40
2016,02,08,05,33,5.40
2016,02,08,05,34,5.40
2016,02,08,05,35,5.40
2016,02,08,05,36,5.30
2016,02,08,05,37,5.30
2016,02,08,05,38,5.30
2016,02,08,05,39,5.30
2016,02,08,05,40,5.30
2016,02,08,05,41,5.30
2016,02,08,05,42,5.30
2016,02,08,05,43,5.30
2016,02,08,05,44,5.30
2016,02,08,05,45,5.30
2016,02,08,05,46,5.30
2016,02,08,05,47,5.30
2016,02,08,05,48,5.30
2016,02,08,05,49,5.30
2016,02,08,05,50,5.20
2016,02,08,05,51,5.20
2016,02,08,05,52,5.20
2016,02,08,05,53,5.20
2016,02,08,05,54,5.20
2016,02,08,05,55,5.20
2016,02,08,05,56,5.10
2016,02,08,05,57,5.10
2016,02,08,05,58,5.10
2016,02,08,05,59,5.10
2016,02,08,06,00,5.10
2016,02,08,06,01,5.10
2016,02,08,06,02,5.10
2016,02,08,06,03,5.00
2016,02,08,06,04,5.00
2016,02,08,06,05,5.00
2016,02,08,06,06,5.00
2016,02,08,06,07,4.90
2016,02,08,06,08,4.90
2016,02,08,06,09,4.90
2016,02,08,06,10,4.90
2016,02,08,06,11,4.90
2016,02,08,06,12,4.90
2016,02,08,06,13,4.80
2016,02,08,06,14,4.80
2016,02,08,06,15,4.80
2016,02,08,06,16,4.80
2016,02,08,06,17,4.80
2016,02,08,06,18,4.80
2016,02,08,06,19,4.70
2016,02,08,06,20,4.70
2016,02,08,06,21,4.70
2016,02,08,06,22,4.70
2016,02,08,06,23,4.70
2016,02,08,06,24,4.60
2016,02,08,06,25,4.60
2016,02,08,06,26,4.60
2016,02,08,06,27,4.60
2016,02,08,06,28,4.60
2016,02,08,06,29,4.50
2016,02,08,06,30,4.50
2016,02,08,06,31,4.50
2016,02,08,06,32,4.40
2016,02,08,06,33,4.40
2016,02,08,06,34,4.40
2016,02,08,06,35,4.40
2016,02,08,06,36,4.30
2016,02,08,06,37,4.30
2016,02,08,06,38,4.30
2016,02,08,06,39,4.30
2016,02,08,06,40,4.30
2016,02,08,06,41,4.30
2016,02,08,06,42,4.20
2016,02,08,06,43,4.20
2016,02,08,06,44,4.20
2016,02,08,06,45,4.20
2016,02,08,06,46,4.20
2016,02,08,06,47,4.20
2016,02,08,06,48,4.20
2016,02,08,06,49,4.20
2016,02,08,06,50,4.20
2016,02,08,06,51,4.20
2016,02,08,06,52,4.20
2016,02,08,06,53,4.10
2016,02,08,06,54,4.10
2016,02,08,06,55,4.10
2016,02,08,06,56,4.10
2016,02,08,06,57,4.10
2016,02,08,06,58,4.10
2016,02,08,06,59,4.10
2016,02,08,07,00,4.10
2016,02,08,07,01,4.10
2016,02,08,07,02,4.10
2016,02,08,07,03,4.10
2016,02,08,07,04,4.10
2016,02,08,07,05,4.10
2016,02,08,07,06,4.00
2016,02,08,07,07,4.00
2016,02,08,07,08,4.00
2016,02,08,07,09,4.00
2016,02,08,07,10,3.90
2016,02,08,07,11,3.90
2016,02,08,07,12,3.90
2016,02,08,07,13,3.90
2016,02,08,07,14,3.90
2016,02,08,07,15,3.90
2016,02,08,07,16,3.90
2016,02,08,07,17,3.80
2016,02,08,07,18,3.80
2016,02,08,07,19,3.80
2016,02,08,07,20,3.80
2016,02,08,07,21,3.80
2016,02,08,07,22,3.80
2016,02,08,07,23,3.70
2016,02,08,07,24,3.70
2016,02,08,07,25,3.70
2016,02,08,07,26,3.70
2016,02,08,07,27,3.70
2016,02,08,07,28,3.70
2016,02,08,07,29,3.60
2016,02,08,07,30,3.60
2016,02,08,07,31,3.60
2016,02,08,07,32,3.60
2016,02,08,07,33,3.60
2016,02,08,07,34,3.60
2016,02,08,07,35,3.50
2016,02,08,07,36,3.50
2016,02,08,07,37,3.50
2016,02,08,07,38,3.50
2016,02,08,07,39,3.40
2016,02,08,07,40,3.40
2016,02,08,07,41,3.40
2016,02,08,07,42,3.40
2016,02,08,07,43,3.40
2016,02,08,07,44,3.30
2016,02,08,07,45,3.30
2016,02,08,07,46,3.30
2016,02,08,07,47,3.30
2016,02,08,07,48,3.30
2016,02,08,07,49,3.30
2016,02,08,07,50,3.30
2016,02,08,07,51,3.30
2016,02,08,07,52,3.20
2016,02,08,07,53,3.20
2016,02,08,07,54,3.20
2016,02,08,07,55,3.20
2016,02,08,07,56,3.20
2016,02,08,07,57,3.20
2016,02,08,07,58,3.20
2016,02,08,07,59,3.20
2016,02,08,08,00,3.10
2016,02,08,08,01,3.10
2016,02,08,08,02,3.10
2016,02,08,08,03,3.10
2016,02,08,08,04,3.10
2016,02,08,08,05,3.10
2016,02,08,08,06,3.10
2016,02,08,08,07,3.10
2016,02,08,08,08,3.10
2016,02,08,08,09,3.10
2016,02,08,08,10,3.10
2016,02,08,08,11,3.10
2016,02,08,08,12,3.10
2016,02,08,08,13,3.10
2016,02,08,08,14,3.10
2016,02,08,08,15,3.10
2016,02,08,08,16,3.10
2016,02,08,08,17,3.10
2016,02,08,08,18,3.10
2016,02,08,08,19,3.10
2016,02,08,08,20,3.10
2016,02,08,08,21,3.10
2016,02,08,08,22,3.10
2016,02,08,08,23,3.10
2016,02,08,08,24,3.10
2016,02,08,08,25,3.10
2016,02,08,08,26,3.10
2016,02,08,08,27,3.10
2016,02,08,08,28,3.10
2016,02,08,08,29,3.10
2016,02,08,08,30,3.10
2016,02,08,08,31,3.10
2016,02,08,08,32,3.10
2016,02,08,08,33,3.10
2016,02,08,08,34,3.10
2016,02,08,08,35,3.10
2016,02,08,08,36,3.20
2016,02,08,08,37,3.20
2016,02,08,08,38,3.20
2016,02,08,08,39,3.20
2016,02,08,08,40,3.30
2016,02,08,08,41,3.30
2016,02,08,08,42,3.30
2016,02,08,08,43,3.40
2016,02,08,08,44,3.40
2016,02,08,08,45,3.40
2016,02,08,08,46,3.50
2016,02,08,08,47,3.60
2016,02,08,08,48,3.60
2016,02,08,08,49,3.70
2016,02,08,08,50,3.70
2016,02,08,08,51,3.70
2016,02,08,08,52,3.70
2016,02,08,08,53,3.80
2016,02,08,08,54,3.80
2016,02,08,08,55,3.80
2016,02,08,08,56,3.90
2016,02,08,08,57,3.90
2016,02,08,08,58,3.90
2016,02,08,08,59,4.00
2016,02,08,09,00,4.00
2016,02,08,09,01,4.00
2016,02,08,09,02,4.10
2016,02,08,09,03,4.10
2016,02,08,09,04,4.10
2016,02,08,09,05,4.10
2016,02,08,09,06,4.10
2016,02,08,09,07,4.20
2016,02,08,09,08,4.20
2016,02,08,09,09,4.20
2016,02,08,09,10,4.20
2016,02,08,09,11,4.30
2016,02,08,09,12,4.30
2016,02,08,09,13,4.30
2016,02,08,09,14,4.30
2016,02,08,09,15,4.30
2016,02,08,09,16,4.40
2016,02,08,09,17,4.40
2016,02,08,09,18,4.50
2016,02,08,09,19,4.50
2016,02,08,09,20,4.60
2016,02,08,09,21,4.70
2016,02,08,09,22,4.70
2016,02,08,09,23,4.80
2016,02,08,09,24,4.80
2016,02,08,09,25,4.90
2016,02,08,09,26,5.00
2016,02,08,09,27,5.10
2016,02,08,09,28,5.20
2016,02,08,09,29,5.30
2016,02,08,09,30,5.40
2016,02,08,09,31,5.50
2016,02,08,09,32,5.50
2016,02,08,09,33,5.60
2016,02,08,09,34,5.70
2016,02,08,09,35,5.70
2016,02,08,09,36,5.80
2016,02,08,09,37,5.90
2016,02,08,09,38,5.90
2016,02,08,09,39,6.00
2016,02,08,09,40,6.10
2016,02,08,09,41,6.20
2016,02,08,09,42,6.30
2016,02,08,09,43,6.30
2016,02,08,09,44,6.30
2016,02,08,09,45,6.40
2016,02,08,09,46,6.50
2016,02,08,09,47,6.50
2016,02,08,09,48,6.60
2016,02,08,09,49,6.70
2016,02,08,09,50,6.80
2016,02,08,09,51,6.80
2016,02,08,09,52,6.90
2016,02,08,09,53,7.00
2016,02,08,09,54,7.00
2016,02,08,09,55,7.10
2016,02,08,09,56,7.20
2016,02,08,09,57,7.20
2016,02,08,09,58,7.30
2016,02,08,09,59,7.40
2016,02,08,10,00,7.50
2016,02,08,10,01,7.60
2016,02,08,10,02,7.70
2016,02,08,10,03,7.70
2016,02,08,10,04,7.80
2016,02,08,10,05,7.80
2016,02,08,10,06,7.90
2016,02,08,10,07,7.90
2016,02,08,10,08,8.00
2016,02,08,10,09,8.10
2016,02,08,10,10,8.20
2016,02,08,10,11,8.20
2016,02,08,10,12,8.30
2016,02,08,10,13,8.30
2016,02,08,10,14,8.40
2016,02,08,10,15,8.40
2016,02,08,10,16,8.40
2016,02,08,10,17,8.50
2016,02,08,10,18,8.50
2016,02,08,10,19,8.50
2016,02,08,10,20,8.50
2016,02,08,10,21,8.60
2016,02,08,10,22,8.60
2016,02,08,10,23,8.60
2016,02,08,10,24,8.70
2016,02,08,10,25,8.70
2016,02,08,10,26,8.80
2016,02,08,10,27,8.80
2016,02,08,10,28,8.90
2016,02,08,10,29,9.00
2016,02,08,10,30,9.10
2016,02,08,10,31,9.10
2016,02,08,10,32,9.10
2016,02,08,10,33,9.20
2016,02,08,10,34,9.20
2016,02,08,10,35,9.30
2016,02,08,10,36,9.30
2016,02,08,10,37,9.40
2016,02,08,10,38,9.40
2016,02,08,10,39,9.50
2016,02,08,10,40,9.60
2016,02,08,10,41,9.70
2016,02,08,10,42,9.80
2016,02,08,10,43,9.90
2016,02,08,10,44,9.90
2016,02,08,10,45,10.00
2016,02,08,10,46,10.10
2016,02,08,10,47,10.10
2016,02,08,10,48,10.20
2016,02,08,10,49,10.20
2016,02,08,10,50,10.20
2016,02,08,10,51,10.30
2016,02,08,10,52,10.30
2016,02,08,10,53,10.30
2016,02,08,10,54,10.40
2016,02,08,10,55,10.40
2016,02,08,10,56,10.50
2016,02,08,10,57,10.50
2016,02,08,10,58,10.60
2016,02,08,10,59,10.60
2016,02,08,11,00,10.70
2016,02,08,11,01,10.70
2016,02,08,11,02,10.70
2016,02,08,11,03,10.70
2016,02,08,11,04,10.70
2016,02,08,11,05,10.70
2016,02,08,11,06,10.70
2016,02,08,11,07,10.70
2016,02,08,11,08,10.70
2016,02,08,11,09,10.80
2016,02,08,11,10,10.80
2016,02,08,11,11,10.80
2016,02,08,11,12,10.90
2016,02,08,11,13,10.90
2016,02,08,11,14,11.00
2016,02,08,11,15,11.10
2016,02,08,11,16,11.10
2016,02,08,11,17,11.20
2016,02,08,11,18,11.30
2016,02,08,11,19,11.40
2016,02,08,11,20,11.50
2016,02,08,11,21,11.50
2016,02,08,11,22,11.60
2016,02,08,11,23,11.70
2016,02,08,11,24,11.70
2016,02,08,11,25,11.80
2016,02,08,11,26,11.80
2016,02,08,11,27,11.80
2016,02,08,11,28,11.80
2016,02,08,11,29,11.90
2016,02,08,11,30,11.90
2016,02,08,11,31,11.90
2016,02,08,11,32,11.90
2016,02,08,11,33,12.00
2016,02,08,11,34,12.10
2016,02,08,11,35,12.10
2016,02,08,11,36,12.10
2016,02,08,11,37,12.10
2016,02,08,11,38,12.10
2016,02,08,11,39,12.10
2016,02,08,11,40,12.10
2016,02,08,11,41,12.20
2016,02,08,11,42,12.20
2016,02,08,11,43,12.30
2016,02,08,11,44,12.30
2016,02,08,11,45,12.40
2016,02,08,11,46,12.40
2016,02,08,11,47,12.40
2016,02,08,11,48,12.50
2016,02,08,11,49,12.50
2016,02,08,11,50,12.60
2016,02,08,11,51,12.60
2016,02,08,11,52,12.60
2016,02,08,11,53,12.70
2016,02,08,11,54,12.70
2016,02,08,11,55,12.70
2016,02,08,11,56,12.80
2016,02,08,11,57,12.80
2016,02,08,11,58,12.80
2016,02,08,11,59,12.80
2016,02,08,12,00,12.80
2016,02,08,12,01,12.80
2016,02,08,12,02,12.80
2016,02,08,12,03,12.80
2016,02,08,12,04,12.80
2016,02,08,12,05,12.80
2016,02,08,12,06,12.80
2016,02,08,12,07,12.80
2016,02,08,12,08,12.80
2016,02,08,12,09,12.80
2016,02,08,12,10,12.80
2016,02,08,12,11,12.80
2016,02,08,12,12,12.80
2016,02,08,12,13,12.80
2016,02,08,12,14,12.80
2016,02,08,12,15,12.80
2016,02,08,12,16,12.80
2016,02,08,12,17,12.90
2016,02,08,12,18,12.90
2016,02,08,12,19,12.90
2016,02,08,12,20,12.90
2016,02,08,12,21,13.00
2016,02,08,12,22,13.00
2016,02,08,12,23,13.10
2016,02,08,12,24,13.10
2016,02,08,12,25,13.10
2016,02,08,12,26,13.20
2016,02,08,12,27,13.20
2016,02,08,12,28,13.20
2016,02,08,12,29,13.20
2016,02,08,12,30,13.20
2016,02,08,12,31,13.20
2016,02,08,12,32,13.20
2016,02,08,12,33,13.20
2016,02,08,12,34,13.20
2016,02,08,12,35,13.20
2016,02,08,12,36,13.20
2016,02,08,12,37,13.30
2016,02,08,12,38,13.20
2016,02,08,12,39,13.20
2016,02,08,12,40,13.30
2016,02,08,12,41,13.30
2016,02,08,12,42,13.30
2016,02,08,12,43,13.30
2016,02,08,12,44,13.30
2016,02,08,12,45,13.30
2016,02,08,12,46,13.30
2016,02,08,12,47,13.30
2016,02,08,12,48,13.30
2016,02,08,12,49,13.40
2016,02,08,12,50,13.40
2016,02,08,12,51,13.40
2016,02,08,12,52,13.40
2016,02,08,12,53,13.40
2016,02,08,12,54,13.40
2016,02,08,12,55,13.50
2016,02,08,12,56,13.50
2016,02,08,12,57,13.60
2016,02,08,12,58,13.60
2016,02,08,12,59,13.60
2016,02,08,13,00,13.70
2016,02,08,13,01,13.70
2016,02,08,13,02,13.80
2016,02,08,13,03,13.80
2016,02,08,13,04,13.80
2016,02,08,13,05,13.90
2016,02,08,13,06,13.90
2016,02,08,13,07,14.00
2016,02,08,13,08,14.10
2016,02,08,13,09,14.10
2016,02,08,13,10,14.20
2016,02,08,13,11,14.20
2016,02,08,13,12,14.20
2016,02,08,13,13,14.20
2016,02,08,13,14,14.20
2016,02,08,13,15,14.20
2016,02,08,13,16,14.20
2016,02,08,13,17,14.20
2016,02,08,13,18,14.30
2016,02,08,13,19,14.30
2016,02,08,13,20,14.20
2016,02,08,13,21,14.20
2016,02,08,13,22,14.20
2016,02,08,13,23,14.10
2016,02,08,13,24,14.10
2016,02,08,13,25,14.10
2016,02,08,13,26,14.10
2016,02,08,13,27,14.10
2016,02,08,13,28,14.10
2016,02,08,13,29,14.10
2016,02,08,13,30,14.20
2016,02,08,13,31,14.20
2016,02,08,13,32,14.20
2016,02,08,13,33,14.20
2016,02,08,13,34,14.30
2016,02,08,13,35,14.30
2016,02,08,13,36,14.30
2016,02,08,13,37,14.30
2016,02,08,13,38,14.20
2016,02,08,13,39,14.20
2016,02,08,13,40,14.20
2016,02,08,13,41,14.20
2016,02,08,13,42,14.20
2016,02,08,13,43,14.20
2016,02,08,13,44,14.20
2016,02,08,13,45,14.20
2016,02,08,13,46,14.20
2016,02,08,13,47,14.20
2016,02,08,13,48,14.20
2016,02,08,13,49,14.20
2016,02,08,13,50,14.20
2016,02,08,13,51,14.20
2016,02,08,13,52,14.20
2016,02,08,13,53,14.20
2016,02,08,13,54,14.20
2016,02,08,13,55,14.20
2016,02,08,13,56,14.20
2016,02,08,13,57,14.20
2016,02,08,13,58,14.20
2016,02,08,13,59,14.20
2016,02,08,14,00,14.20
2016,02,08,14,01,14.20
2016,02,08,14,02,14.20
2016,02,08,14,03,14.20
2016,02,08,14,04,14.20
2016,02,08,14,05,14.20
2016,02,08,14,06,14.20
2016,02,08,14,07,14.20
2016,02,08,14,08,14.20
2016,02,08,14,09,14.20
2016,02,08,14,10,14.20
2016,02,08,14,11,14.20
2016,02,08,14,12,14.20
2016,02,08,14,13,14.20
2016,02,08,14,14,14.30
2016,02,08,14,15,14.30
2016,02,08,14,16,14.30
2016,02,08,14,17,14.30
2016,02,08,14,18,14.30
2016,02,08,14,19,14.30
2016,02,08,14,20,14.30
2016,02,08,14,21,14.30
2016,02,08,14,22,14.30
2016,02,08,14,23,14.40
2016,02,08,14,24,14.40
2016,02,08,14,25,14.40
2016,02,08,14,26,14.40
2016,02,08,14,27,14.40
2016,02,08,14,28,14.40
2016,02,08,14,29,14.40
2016,02,08,14,30,14.40
2016,02,08,14,31,14.40
2016,02,08,14,32,14.40
2016,02,08,14,33,14.40
2016,02,08,14,34,14.30
2016,02,08,14,35,14.30
2016,02,08,14,36,14.30
2016,02,08,14,37,14.30
2016,02,08,14,38,14.30
2016,02,08,14,39,14.30
2016,02,08,14,40,14.30
2016,02,08,14,41,14.40
2016,02,08,14,42,14.40
2016,02,08,14,43,14.40
2016,02,08,14,44,14.40
2016,02,08,14,45,14.40
2016,02,08,14,46,14.40
2016,02,08,14,47,14.40
2016,02,08,14,48,14.40
2016,02,08,14,49,14.40
2016,02,08,14,50,14.40
2016,02,08,14,51,14.40
2016,02,08,14,52,14.40
2016,02,08,14,53,14.40
2016,02,08,14,54,14.40
2016,02,08,14,55,14.50
2016,02,08,14,56,14.50
2016,02,08,14,57,14.50
2016,02,08,14,58,14.50
2016,02,08,14,59,14.50
2016,02,08,15,00,14.40
2016,02,08,15,01,14.40
2016,02,08,15,02,14.40
2016,02,08,15,03,14.40
2016,02,08,15,04,14.40
2016,02,08,15,05,14.40
2016,02,08,15,06,14.40
2016,02,08,15,07,14.40
2016,02,08,15,08,14.40
2016,02,08,15,09,14.40
2016,02,08,15,10,14.40
2016,02,08,15,11,14.30
2016,02,08,15,12,14.30
2016,02,08,15,13,14.30
2016,02,08,15,14,14.30
2016,02,08,15,15,14.30
2016,02,08,15,16,14.30
2016,02,08,15,17,14.30
2016,02,08,15,18,14.30
2016,02,08,15,19,14.30
2016,02,08,15,20,14.30
2016,02,08,15,21,14.30
2016,02,08,15,22,14.30
2016,02,08,15,23,14.30
2016,02,08,15,24,14.30
2016,02,08,15,25,14.30
2016,02,08,15,26,14.30
2016,02,08,15,27,14.30
2016,02,08,15,28,14.20
2016,02,08,15,29,14.20
2016,02,08,15,30,14.20
2016,02,08,15,31,14.20
2016,02,08,15,32,14.20
2016,02,08,15,33,14.20
2016,02,08,15,34,14.20
2016,02,08,15,35,14.10
2016,02,08,15,36,14.10
2016,02,08,15,37,14.10
2016,02,08,15,38,14.10
2016,02,08,15,39,14.10
2016,02,08,15,40,14.10
2016,02,08,15,41,14.00
2016,02,08,15,42,14.00
2016,02,08,15,43,14.00
2016,02,08,15,44,14.00
2016,02,08,15,45,13.90
2016,02,08,15,46,13.90
2016,02,08,15,47,13.90
2016,02,08,15,48,13.90
2016,02,08,15,49,13.90
2016,02,08,15,50,13.90
2016,02,08,15,51,13.90
2016,02,08,15,52,13.90
2016,02,08,15,53,13.90
2016,02,08,15,54,13.80
2016,02,08,15,55,13.80
2016,02,08,15,56,13.80
2016,02,08,15,57,13.80
2016,02,08,15,58,13.80
2016,02,08,15,59,13.80
2016,02,08,16,00,13.80
2016,02,08,16,01,13.80
2016,02,08,16,02,13.80
2016,02,08,16,03,13.70
2016,02,08,16,04,13.70
2016,02,08,16,05,13.70
2016,02,08,16,06,13.70
2016,02,08,16,07,13.70
2016,02,08,16,08,13.60
2016,02,08,16,09,13.60
2016,02,08,16,10,13.60
2016,02,08,16,11,13.60
2016,02,08,16,12,13.50
2016,02,08,16,13,13.50
2016,02,08,16,14,13.50
2016,02,08,16,15,13.40
2016,02,08,16,16,13.40
2016,02,08,16,17,13.40
2016,02,08,16,18,13.40
2016,02,08,16,19,13.40
2016,02,08,16,20,13.30
2016,02,08,16,21,13.30
2016,02,08,16,22,13.30
2016,02,08,16,23,13.30
2016,02,08,16,24,13.30
2016,02,08,16,25,13.30
2016,02,08,16,26,13.30
2016,02,08,16,27,13.30
2016,02,08,16,28,13.20
2016,02,08,16,29,13.20
2016,02,08,16,30,13.20
2016,02,08,16,31,13.20
2016,02,08,16,32,13.20
2016,02,08,16,33,13.20
2016,02,08,16,34,13.20
2016,02,08,16,35,13.10
2016,02,08,16,36,13.10
2016,02,08,16,37,13.10
2016,02,08,16,38,13.10
2016,02,08,16,39,13.10
2016,02,08,16,40,13.00
2016,02,08,16,41,13.00
2016,02,08,16,42,13.00
2016,02,08,16,43,13.00
2016,02,08,16,44,13.00
2016,02,08,16,45,13.00
2016,02,08,16,46,12.90
2016,02,08,16,47,12.90
2016,02,08,16,48,12.90
2016,02,08,16,49,12.90
2016,02,08,16,50,12.90
2016,02,08,16,51,12.80
2016,02,08,16,52,12.80
2016,02,08,16,53,12.80
2016,02,08,16,54,12.80
2016,02,08,16,55,12.80
2016,02,08,16,56,12.70
2016,02,08,16,57,12.70
2016,02,08,16,58,12.60
2016,02,08,16,59,12.60
2016,02,08,17,00,12.60
2016,02,08,17,01,12.50
2016,02,08,17,02,12.50
2016,02,08,17,03,12.40
2016,02,08,17,04,12.40
2016,02,08,17,05,12.30
2016,02,08,17,06,12.30
2016,02,08,17,07,12.20
2016,02,08,17,08,12.20
2016,02,08,17,09,12.20
2016,02,08,17,10,12.10
2016,02,08,17,11,12.10
2016,02,08,17,12,12.00
2016,02,08,17,13,12.00
2016,02,08,17,14,11.90
2016,02,08,17,15,11.90
2016,02,08,17,16,11.80
2016,02,08,17,17,11.70
2016,02,08,17,18,11.70
2016,02,08,17,19,11.60
2016,02,08,17,20,11.50
2016,02,08,17,21,11.40
2016,02,08,17,22,11.30
2016,02,08,17,23,11.30
2016,02,08,17,24,11.20
2016,02,08,17,25,11.10
2016,02,08,17,26,11.00
2016,02,08,17,27,10.90
2016,02,08,17,28,10.80
2016,02,08,17,29,10.80
2016,02,08,17,30,10.70
2016,02,08,17,31,10.60
2016,02,08,17,32,10.50
2016,02,08,17,33,10.50
2016,02,08,17,34,10.40
2016,02,08,17,35,10.30
2016,02,08,17,36,10.30
2016,02,08,17,37,10.20
2016,02,08,17,38,10.20
2016,02,08,17,39,10.10
2016,02,08,17,40,10.10
2016,02,08,17,41,10.00
2016,02,08,17,42,9.90
2016,02,08,17,43,9.80
2016,02,08,17,44,9.80
2016,02,08,17,45,9.70
2016,02,08,17,46,9.70
2016,02,08,17,47,9.60